Chester, CT

5:46 PM EDT on September 25, 2017 (GMT -0400)
Chester

Weather History for KSNC - May, 2013

Change the Weather History Date:

Tuesday, May 7, 2013

  Actual Average (KHVN) Record (KHVN)
Temperature  
Mean Temperature 58 °F -  
Max Temperature 71 °F 63 °F 82 °F (2000)
Min Temperature 44 °F 46 °F 33 °F (1992)
Degree Days  
Heating Degree Days 8    
Growing Degree Days 8 (Base 50)    
Moisture  
Dew Point 51 °F    
Average Humidity 77    
Maximum Humidity 100    
Minimum Humidity 49    
Precipitation  
Precipitation 0.00 in - - ()
Sea Level Pressure  
Sea Level Pressure 30.16 in    
Wind  
Wind Speed 4 mph (SE)    
Max Wind Speed 12 mph    
Max Gust Speed 18 mph    
Visibility 10 miles    
Events      
Averages and records for this station are not official NWS values.
T = Trace of Precipitation, MM = Missing Value Source: NWS Daily Summary

Daily Weather History Graph

Daily Weather History Graph

Search for Another Location

Airport or City:

Trip Planner

Search our weather history database for the weather conditions in past years. The results will help you decide how hot, cold, wet, or windy it might be!

Date:

Astronomy

May. 07, 2013 Rise Set
Actual Time 5:39 AM EDT 7:54 PM EDT
Civil Twilight 5:08 AM EDT 8:24 PM EDT
Nautical Twilight 4:31 AM EDT 9:02 PM EDT
Astronomical Twilight 3:49 AM EDT 9:44 PM EDT
Moon 4:13 AM EDT (5/7) 5:49 PM EDT (5/7)
Length of Visible Light 15h 16m
Length of Day
14h 14m
Waning Crescent, 5% of the Moon is Illuminated
May 7
Waning Crescent
May 9
New
May 18
First Quarter
May 25
Full
May 31
Last Quarter

Hourly Weather History & Observations

Time (EDT) Temp. Windchill Dew Point Humidity Pressure Visibility Wind Dir Wind Speed Gust Speed Precip Events Conditions
12:15 AM 46.4 °F - 46.4 °F 100% 30.18 in 10.0 mi Calm Calm - N/A   Clear
12:35 AM 46.4 °F 45.2 °F 44.6 °F 93% 30.18 in 10.0 mi NNW 3.5 mph - N/A   Clear
12:55 AM 46.4 °F - 44.6 °F 93% 30.18 in 10.0 mi Calm Calm - N/A   Clear
1:15 AM 46.4 °F - 44.6 °F 93% 30.17 in 10.0 mi Calm Calm - N/A   Clear
1:35 AM 46.4 °F 45.2 °F 44.6 °F 93% 30.16 in 10.0 mi NNW 3.5 mph - N/A   Clear
1:55 AM 46.4 °F - 46.4 °F 100% 30.16 in 10.0 mi Calm Calm - N/A   Clear
2:15 AM 46.4 °F - 44.6 °F 93% 30.16 in 10.0 mi Calm Calm - N/A   Clear
2:35 AM 46.4 °F - 46.4 °F 100% 30.16 in 10.0 mi Calm Calm - N/A   Clear
2:55 AM 46.4 °F - 46.4 °F 100% 30.17 in 10.0 mi Calm Calm - N/A   Clear
3:15 AM 44.6 °F - 44.6 °F 100% 30.17 in 10.0 mi Calm Calm - N/A   Clear
3:35 AM 44.6 °F 43.1 °F 44.6 °F 100% 30.16 in 10.0 mi NW 3.5 mph - N/A   Clear
3:55 AM 44.6 °F 43.1 °F 44.6 °F 100% 30.16 in 10.0 mi NNW 3.5 mph - N/A   Clear
4:15 AM 46.4 °F 45.2 °F 44.6 °F 93% 30.16 in 10.0 mi NNW 3.5 mph - N/A   Clear
4:35 AM 44.6 °F 42.2 °F 44.6 °F 100% 30.16 in 10.0 mi NNW 4.6 mph - N/A   Clear
4:55 AM 44.6 °F 42.2 °F 44.6 °F 100% 30.15 in 10.0 mi NNW 4.6 mph - N/A   Clear
5:15 AM 44.6 °F 43.1 °F 44.6 °F 100% 30.15 in 10.0 mi NNW 3.5 mph - N/A   Clear
5:35 AM 46.4 °F - 46.4 °F 100% 30.16 in 10.0 mi Calm Calm - N/A   Clear
5:55 AM 46.4 °F 45.2 °F 46.4 °F 100% 30.17 in 10.0 mi North 3.5 mph - N/A   Clear
6:15 AM 51.8 °F - 44.6 °F 76% 30.17 in 10.0 mi NNE 3.5 mph - N/A   Clear
6:35 AM 53.6 °F - 44.6 °F 72% 30.17 in 10.0 mi North 3.5 mph - N/A   Clear
6:55 AM 55.4 °F - 44.6 °F 67% 30.17 in 9.0 mi NNE 3.5 mph - N/A   Clear
7:15 AM 57.2 °F - 42.8 °F 59% 30.17 in 10.0 mi North 3.5 mph - N/A   Clear
7:35 AM 59.0 °F - 44.6 °F 59% 30.17 in 10.0 mi ENE 3.5 mph - N/A   Clear
7:55 AM 60.8 °F - 46.4 °F 59% 30.17 in 10.0 mi East 4.6 mph - N/A   Clear
8:15 AM 62.6 °F - 46.4 °F 55% 30.18 in 10.0 mi East 6.9 mph - N/A   Clear
8:35 AM 64.4 °F - 46.4 °F 52% 30.18 in 10.0 mi ENE 4.6 mph - N/A   Clear
8:55 AM 66.2 °F - 46.4 °F 49% 30.18 in 10.0 mi East 5.8 mph - N/A   Clear
9:15 AM 66.2 °F - 46.4 °F 49% 30.18 in 8.0 mi ENE 6.9 mph - N/A   Clear
9:35 AM 66.2 °F - 48.2 °F 52% 30.18 in 10.0 mi NE 5.8 mph - N/A   Clear
9:55 AM 68.0 °F - 50.0 °F 52% 30.18 in 10.0 mi ESE 8.1 mph - N/A   Partly Cloudy
10:15 AM 69.8 °F - 51.8 °F 53% 30.19 in 9.0 mi SE 8.1 mph - N/A   Mostly Cloudy
10:35 AM 68.0 °F - 50.0 °F 52% 30.19 in 10.0 mi SE 4.6 mph - N/A   Partly Cloudy
10:55 AM 68.0 °F - 51.8 °F 56% 30.18 in 10.0 mi SE 6.9 mph - N/A   Partly Cloudy
11:15 AM 69.8 °F - 53.6 °F 56% 30.18 in 10.0 mi SSE 6.9 mph - N/A   Scattered Clouds
11:35 AM 69.8 °F - 53.6 °F 56% 30.17 in 10.0 mi SSE 8.1 mph - N/A   Partly Cloudy
11:55 AM 69.8 °F - 53.6 °F 56% 30.17 in 9.0 mi ESE 9.2 mph - N/A   Clear
12:15 PM 69.8 °F - 53.6 °F 56% 30.16 in 10.0 mi SE 9.2 mph - N/A   Clear
12:35 PM 71.6 °F - 53.6 °F 53% 30.16 in 10.0 mi SSE 10.4 mph 16.1 mph N/A   Scattered Clouds
12:55 PM 69.8 °F - 57.2 °F 64% 30.16 in 10.0 mi SSE 11.5 mph 16.1 mph N/A   Partly Cloudy
1:15 PM 69.8 °F - 57.2 °F 64% 30.15 in 10.0 mi SSE 10.4 mph 18.4 mph N/A   Clear
1:35 PM 68.0 °F - 57.2 °F 68% 30.15 in 10.0 mi SE 11.5 mph - N/A   Clear
1:55 PM 66.2 °F - 57.2 °F 73% 30.16 in 10.0 mi SSE 10.4 mph - N/A   Clear
2:15 PM 68.0 °F - 57.2 °F 68% 30.15 in 10.0 mi SE 10.4 mph 16.1 mph N/A   Clear
2:35 PM 68.0 °F - 57.2 °F 68% 30.14 in 10.0 mi South 10.4 mph - N/A   Clear
2:55 PM 69.8 °F - 57.2 °F 64% 30.14 in 10.0 mi South 8.1 mph - N/A   Clear
3:15 PM 69.8 °F - 55.4 °F 60% 30.14 in 10.0 mi SSE 9.2 mph - N/A   Clear
3:35 PM 69.8 °F - 55.4 °F 60% 30.13 in 10.0 mi SSE 11.5 mph - N/A   Clear
3:55 PM 69.8 °F - 55.4 °F 60% 30.13 in 10.0 mi South 8.1 mph - N/A   Clear
4:15 PM 69.8 °F - 57.2 °F 64% 30.13 in 10.0 mi SSE 10.4 mph - N/A   Clear
4:35 PM 69.8 °F - 55.4 °F 60% 30.13 in 10.0 mi South 9.2 mph - N/A   Clear
4:55 PM 68.0 °F - 55.4 °F 64% 30.13 in 10.0 mi SSE 8.1 mph - N/A   Clear
5:15 PM 68.0 °F - 55.4 °F 64% 30.13 in 10.0 mi South 9.2 mph - N/A   Clear
5:35 PM 68.0 °F - 55.4 °F 64% 30.13 in 10.0 mi SSE 8.1 mph - N/A   Clear
5:55 PM 66.2 °F - 55.4 °F 68% 30.13 in 10.0 mi South 6.9 mph - N/A   Clear
6:15 PM 66.2 °F - 55.4 °F 68% 30.14 in 10.0 mi South 5.8 mph - N/A   Clear
6:35 PM 64.4 °F - 55.4 °F 73% 30.14 in 10.0 mi SE 3.5 mph - N/A   Clear
6:55 PM 62.6 °F - 57.2 °F 82% 30.15 in 10.0 mi SE 4.6 mph - N/A   Clear
7:15 PM 62.6 °F - 57.2 °F 82% 30.15 in 10.0 mi SE 3.5 mph - N/A   Clear
7:35 PM 60.8 °F - 57.2 °F 88% 30.15 in 10.0 mi SE 4.6 mph - N/A   Clear
7:55 PM 60.8 °F - 57.2 °F 88% 30.16 in 10.0 mi Calm Calm - N/A   Clear
8:15 PM 59.0 °F - 57.2 °F 94% 30.16 in 10.0 mi SSE 3.5 mph - N/A   Clear
8:35 PM 59.0 °F - 57.2 °F 94% 30.17 in 10.0 mi Calm Calm - N/A   Clear
8:55 PM 57.2 °F - 57.2 °F 100% 30.17 in 10.0 mi Calm Calm - N/A   Clear
9:15 PM 57.2 °F - 57.2 °F 100% 30.18 in 10.0 mi Calm Calm - N/A   Clear
9:35 PM 57.2 °F - 55.4 °F 94% 30.18 in 10.0 mi ESE 3.5 mph - N/A   Clear
9:55 PM 57.2 °F - 55.4 °F 94% 30.18 in 10.0 mi Calm Calm - N/A   Clear
10:15 PM 57.2 °F - 55.4 °F 94% 30.18 in 10.0 mi Calm Calm - N/A   Clear
10:35 PM 57.2 °F - 55.4 °F 94% 30.18 in 10.0 mi Calm Calm - N/A   Clear
10:55 PM 57.2 °F - 55.4 °F 94% 30.17 in 10.0 mi Calm Calm - N/A   Clear
11:15 PM 57.2 °F - 55.4 °F 94% 30.17 in 10.0 mi Calm Calm - N/A   Clear
11:35 PM 57.2 °F - 55.4 °F 94% 30.16 in 10.0 mi Calm Calm - N/A   Clear
11:55 PM 57.2 °F - 55.4 °F 94% 30.16 in 10.0 mi Calm Calm - N/A   Clear